sat.trackr.live / text

‹ back to catalog

STARLINK-5801

NORAD 56005 · 2023-042V

PAYLOAD ACTIVE UNKNOWN

§ Identity

Operator
Country
US
Launch date
2023-03-24
Launch site
AFETR
Launch vehicle
Mass (kg)
RCS (m²)

Purposes: comms

External: N2YO · Heavens-Above · Gunter

§ Orbital elements

Epoch: 2026-09-20T21:03:51.660000Z

Period
94.27 min
Inclination
43.0025°
Eccentricity
0.0001194
Mean motion
15.27578656 rev/d
Perigee alt
482.2 km
Apogee alt
483.9 km
Semi-major
6,861.2 km
B*
1.9099e-5
RAAN
41.3178°
Arg perigee
269.5315°
Mean anomaly
90.5400°
Rev number
19,267

§ Raw data

STARLINK-58011 56005U 23042V   26263.87768125  .00000263  00000+0  19099-4 0  99922 56005  43.0025  41.3178 0001194 269.5315  90.5400 15.27578656192677

JSON: /api/v1/satellites/56005 · /tle

For live sub-satellite position, see the globe view (requires WebGL).

§ Visibility from observer

Set your observer location to see the next 7 days of passes ≥ 10°. The values pass through the URL so the page stays shareable.

No JS? Fill the form by hand. The geolocation button needs JavaScript.